| time (UTC) | temp F | wind direction | speed MPH | gust MPH | rain 1hr in | rain 24hr in | rain mn in | humidity % | barometer mb |
| 20260504021020 | 52 | 223 | 0.0 | 0.0 | 0.00 | 0.00 | 0.00 | 94 | 1013.6 |
| 20260504020024 | 52 | 16 | 0.0 | 0.0 | 0.00 | 0.00 | 0.00 | 94 | 1013.6 |
| 20260504015028 | 52 | 7 | 0.0 | 0.0 | 0.00 | 0.00 | 0.00 | 94 | 1013.6 |
| 20260504014026 | 52 | 29 | 0.0 | 0.0 | 0.00 | 0.00 | 0.00 | 94 | 1013.5 |
| 20260504013046 | 53 | 35 | 0.0 | 0.0 | 0.00 | 0.00 | 0.00 | 93 | 1013.6 |
| 20260504012027 | 53 | 12 | 0.0 | 0.0 | 0.00 | 0.00 | 0.00 | 93 | 1013.5 |
| 20260504011026 | 53 | 51 | 0.0 | 0.0 | 0.00 | 0.00 | 0.00 | 92 | 1013.6 |
| 20260504010027 | 53 | 29 | 0.0 | 0.0 | 0.00 | 0.00 | 0.00 | 92 | 1013.6 |
| 20260504005028 | 53 | 80 | 0.0 | 0.0 | 0.00 | 0.00 | 0.00 | 92 | 1013.6 |
| 20260504004029 | 53 | 230 | 0.0 | 0.0 | 0.00 | 0.00 | 0.00 | 92 | 1013.6 |
| 20260504003030 | 53 | 66 | 0.0 | 0.0 | 0.00 | 0.00 | 0.00 | 92 | 1013.6 |
| 20260504002016 | 53 | 351 | 0.0 | 0.0 | 0.00 | 0.00 | 0.00 | 92 | 1013.4 |
| 20260504001018 | 54 | 11 | 0.0 | 0.0 | 0.00 | 0.00 | 0.00 | 91 | 1013.4 |
| 20260504000016 | 54 | 350 | 0.0 | 0.0 | 0.00 | 0.00 | 0.00 | 90 | 1013.5 |
| 20260503235017 | 55 | 2 | 0.0 | 0.0 | 0.00 | 0.00 | 0.00 | 89 | 1013.4 |
| 20260503234018 | 55 | 54 | 0.0 | 0.0 | 0.00 | 0.00 | 0.00 | 89 | 1013.4 |
| 20260503233019 | 55 | 31 | 0.0 | 0.0 | 0.00 | 0.00 | 0.00 | 89 | 1013.3 |
| 20260503232020 | 55 | 14 | 0.0 | 0.0 | 0.00 | 0.00 | 0.00 | 89 | 1013.3 |
| 20260503231023 | 55 | 54 | 0.0 | 0.0 | 0.00 | 0.00 | 0.00 | 89 | 1013.2 |
| 20260503230021 | 55 | 24 | 0.0 | 0.0 | 0.00 | 0.00 | 0.00 | 88 | 1013.2 |
| 20260503225021 | 55 | 175 | 0.0 | 2.0 | 0.00 | 0.00 | 0.00 | 88 | 1013.2 |
| 20260503224021 | 55 | 29 | 0.0 | 0.0 | 0.00 | 0.00 | 0.00 | 88 | 1013.1 |
| 20260503223019 | 55 | 16 | 0.0 | 0.0 | 0.00 | 0.00 | 0.00 | 89 | 1013.0 |
| 20260503222022 | 55 | 62 | 0.0 | 0.0 | 0.00 | 0.00 | 0.00 | 89 | 1012.9 |
| 20260503221045 | 55 | 26 | 0.0 | 0.0 | 0.00 | 0.00 | 0.00 | 89 | 1013.0 |
| 20260503220024 | 55 | 6 | 0.0 | 0.0 | 0.00 | 0.00 | 0.00 | 89 | 1012.9 |
| 20260503215026 | 55 | 357 | 0.0 | 0.0 | 0.00 | 0.00 | 0.00 | 88 | 1012.8 |
| 20260503214025 | 55 | 30 | 0.0 | 0.0 | 0.00 | 0.00 | 0.00 | 88 | 1012.8 |
| 20260503213044 | 55 | 20 | 0.0 | 0.0 | 0.00 | 0.00 | 0.00 | 87 | 1012.7 |
| 20260503212025 | 56 | 44 | 0.0 | 0.0 | 0.00 | 0.00 | 0.00 | 86 | 1012.7 |
| 20260503211025 | 56 | 47 | 0.0 | 0.0 | 0.00 | 0.00 | 0.00 | 85 | 1012.6 |
| 20260503210024 | 56 | 16 | 0.0 | 0.0 | 0.00 | 0.00 | 0.00 | 84 | 1012.5 |
| 20260503205026 | 57 | 26 | 0.0 | 0.0 | 0.00 | 0.00 | 0.00 | 83 | 1012.5 |
| 20260503204028 | 58 | 343 | 0.0 | 0.0 | 0.00 | 0.00 | 0.00 | 81 | 1012.2 |
| 20260503203016 | 58 | 38 | 0.0 | 0.0 | 0.00 | 0.00 | 0.00 | 79 | 1012.0 |
| 20260503202017 | 58 | 167 | 0.0 | 2.0 | 0.00 | 0.00 | 0.00 | 78 | 1011.8 |
| 20260503201020 | 58 | 10 | 0.0 | 0.0 | 0.00 | 0.00 | 0.00 | 77 | 1011.7 |
| 20260503200040 | 59 | 35 | 0.0 | 0.0 | 0.00 | 0.00 | 0.00 | 76 | 1011.7 |
| 20260503195020 | 59 | 10 | 0.0 | 0.0 | 0.00 | 0.00 | 0.00 | 76 | 1011.6 |
| 20260503194022 | 60 | 19 | 0.0 | 0.0 | 0.00 | 0.00 | 0.00 | 75 | 1011.5 |
| 20260503193024 | 60 | 327 | 0.0 | 0.0 | 0.00 | 0.00 | 0.00 | 74 | 1011.4 |
| 20260503192024 | 61 | 351 | 0.0 | 0.0 | 0.00 | 0.00 | 0.00 | 73 | 1011.4 |
| 20260503191026 | 61 | 303 | 0.0 | 2.0 | 0.00 | 0.00 | 0.00 | 74 | 1011.3 |
| 20260503190028 | 61 | 330 | 0.0 | 0.0 | 0.00 | 0.00 | 0.00 | 73 | 1011.1 |
| 20260503185016 | 62 | 311 | 0.0 | 0.0 | 0.00 | 0.00 | 0.00 | 72 | 1010.9 |
| 20260503184016 | 63 | 30 | 0.0 | 0.0 | 0.00 | 0.00 | 0.00 | 72 | 1011.0 |
| 20260503183016 | 64 | 16 | 0.0 | 0.0 | 0.00 | 0.00 | 0.00 | 71 | 1010.9 |
| 20260503182020 | 64 | 23 | 0.0 | 0.0 | 0.00 | 0.00 | 0.00 | 69 | 1010.7 |
| 20260503181020 | 64 | 18 | 0.0 | 0.0 | 0.00 | 0.00 | 0.00 | 66 | 1010.7 |
| 20260503180022 | 63 | 255 | 0.0 | 2.0 | 0.00 | 0.00 | 0.00 | 66 | 1010.6 |
| 20260503175024 | 63 | 56 | 0.0 | 0.0 | 0.00 | 0.00 | 0.00 | 70 | 1010.6 |
| 20260503174025 | 63 | 171 | 0.0 | 2.0 | 0.00 | 0.00 | 0.00 | 70 | 1010.6 |
| 20260503173025 | 64 | 42 | 0.0 | 0.0 | 0.00 | 0.00 | 0.00 | 69 | 1010.7 |
| 20260503172046 | 66 | 280 | 0.0 | 0.0 | 0.00 | 0.00 | 0.00 | 67 | 1010.6 |
| 20260503171030 | 67 | 133 | 0.0 | 2.0 | 0.00 | 0.00 | 0.00 | 65 | 1010.7 |
| 20260503131032 | 66 | 80 | 0.0 | 2.0 | 0.00 | 0.05 | 0.00 | 64 | 1011.3 |
| 20260503081019 | 58 | 339 | 0.0 | 5.0 | 0.00 | 0.05 | 0.00 | 81 | 1011.7 |
| 20260503072047 | 57 | 251 | 0.0 | 2.0 | 0.00 | 0.05 | 0.00 | 82 | 1011.6 |
| 20260503071028 | 57 | 169 | 0.0 | 2.0 | 0.00 | 0.05 | 0.00 | 83 | 1011.7 |
| 20260503055031 | 53 | 355 | 0.0 | 0.0 | 0.00 | 0.05 | 0.00 | 97 | 1011.4 |
| 20260503054019 | 53 | 14 | 0.0 | 0.0 | 0.00 | 0.05 | 0.00 | 97 | 1011.4 |
| 20260503053019 | 53 | 7 | 0.0 | 0.0 | 0.00 | 0.05 | 0.00 | 97 | 1011.4 |
| 20260503052020 | 53 | 19 | 0.0 | 0.0 | 0.00 | 0.05 | 0.00 | 98 | 1011.2 |
| 20260503051024 | 52 | 12 | 0.0 | 0.0 | 0.00 | 0.05 | 0.00 | 98 | 1011.3 |
| 20260503050023 | 52 | 354 | 0.0 | 0.0 | 0.00 | 0.05 | 0.00 | 98 | 1011.3 |
| 20260503045024 | 52 | 6 | 0.0 | 0.0 | 0.00 | 0.05 | 0.00 | 98 | 1011.2 |
| 20260503044028 | 52 | 34 | 0.0 | 0.0 | 0.00 | 0.05 | 0.00 | 98 | 1011.1 |
| 20260503043031 | 52 | 14 | 0.0 | 0.0 | 0.00 | 0.05 | 0.00 | 98 | 1011.2 |
| 20260503042017 | 52 | 14 | 0.0 | 0.0 | 0.00 | 0.05 | 0.00 | 97 | 1011.2 |
| 20260503041019 | 53 | 22 | 0.0 | 0.0 | 0.00 | 0.05 | 0.00 | 97 | 1011.2 |
| 20260503040019 | 53 | 15 | 0.0 | 0.0 | 0.00 | 0.05 | 0.00 | 97 | 1011.2 |
| 20260503035020 | 53 | 128 | 0.0 | 0.0 | 0.00 | 0.05 | 0.00 | 97 | 1011.2 |
| 20260503034040 | 53 | 24 | 0.0 | 0.0 | 0.00 | 0.05 | 0.00 | 97 | 1011.3 |
| 20260503033020 | 54 | 16 | 0.0 | 0.0 | 0.00 | 0.05 | 0.00 | 96 | 1011.2 |
| 20260503032023 | 54 | 283 | 0.0 | 0.0 | 0.00 | 0.05 | 0.00 | 96 | 1011.2 |
| 20260503031027 | 54 | 356 | 0.0 | 0.0 | 0.00 | 0.05 | 0.00 | 96 | 1011.3 |
| 20260503030031 | 54 | 11 | 0.0 | 0.0 | 0.00 | 0.05 | 0.00 | 97 | 1011.4 |
| 20260503025030 | 54 | 44 | 0.0 | 0.0 | 0.00 | 0.05 | 0.00 | 97 | 1011.2 |
| 20260503024031 | 54 | 17 | 0.0 | 0.0 | 0.00 | 0.05 | 0.00 | 97 | 1011.4 |
| 20260503023018 | 54 | 11 | 0.0 | 0.0 | 0.00 | 0.05 | 0.00 | 97 | 1011.3 |
| 20260503022021 | 54 | 36 | 0.0 | 0.0 | 0.00 | 0.05 | 0.00 | 97 | 1011.3 |